FW1630 Weather Reports


Display with metric or nautical units.
time (UTC)temp
F
wind
direction
speed
MPH
gust
MPH
rain 1hr
in
rain 24hr
in
rain mn
in
humidity
%
barometer
mb
20180222090448 35 350 2.0 3.0 0.00 0.00 0.00 93 1017.7
20180222085949 35 1 2.0 3.0 0.00 0.00 0.00 93 1017.7
20180222085448 35 1 3.0 3.0 0.00 0.00 0.00 93 1017.7
20180222084949 34 5 1.0 3.0 0.00 0.00 0.00 93 1017.7
20180222084448 34 106 0.0 2.0 0.00 0.00 0.00 94 1017.7
20180222083948 34 135 0.0 1.0 0.00 0.00 0.00 94 1017.7
20180222083448 34 0 0.0 0.0 0.00 0.00 0.00 94 1017.7
20180222082948 34 0 0.0 0.0 0.00 0.00 0.00 94 1017.7
20180222082448 34 135 0.0 1.0 0.00 0.00 0.00 94 1017.7
20180222081948 34 135 1.0 2.0 0.00 0.00 0.00 94 1017.7
20180222081448 33 135 1.0 2.0 0.00 0.00 0.00 94 1017.7
20180222080948 33 135 0.0 2.0 0.00 0.00 0.00 95 1017.7
20180222080448 33 135 0.0 2.0 0.00 0.00 0.00 94 1017.7
20180222075948 33 0 0.0 0.0 0.00 0.00 0.00 95 1017.7
20180222075448 33 135 0.0 2.0 0.00 0.00 0.00 95 1017.7
20180222074948 33 135 0.0 2.0 0.00 0.00 0.00 94 1017.7
20180222074448 33 135 1.0 2.0 0.00 0.00 0.00 94 1017.7
20180222073948 33 135 1.0 2.0 0.00 0.00 0.00 94 1017.7
20180222073448 32 135 1.0 2.0 0.00 0.00 0.00 94 1017.7
20180222072948 32 135 1.0 2.0 0.00 0.00 0.00 94 1017.7
20180222072448 32 135 1.0 2.0 0.00 0.00 0.00 94 1017.7
20180222071948 32 135 1.0 2.0 0.00 0.00 0.00 94 1017.7
20180222071448 32 135 1.0 2.0 0.00 0.00 0.00 94 1017.7
20180222070948 32 135 0.0 2.0 0.00 0.00 0.00 94 1017.7
20180222070448 32 0 0.0 0.0 0.00 0.00 0.00 95 1017.7
20180222065949 32 0 0.0 0.0 0.00 0.00 0.00 95 1017.7
20180222065449 31 0 0.0 0.0 0.00 0.00 0.00 95 1017.7
20180222064949 31 135 0.0 1.0 0.00 0.00 0.00 95 1017.7
20180222064448 31 135 1.0 2.0 0.00 0.00 0.00 95 1017.7
20180222063948 31 135 0.0 2.0 0.00 0.00 0.00 95 1017.7
20180222063448 31 135 0.0 1.0 0.00 0.00 0.00 94 1017.7
20180222062948 31 135 1.0 2.0 0.00 0.00 0.00 95 1017.7
20180222062448 31 135 1.0 2.0 0.00 0.00 0.00 94 1017.7
20180222061948 31 135 0.0 2.0 0.00 0.00 0.00 94 1017.7
20180222061448 31 135 0.0 1.0 0.00 0.00 0.00 94 1017.7
20180222060949 31 135 0.0 1.0 0.00 0.00 0.00 94 1017.7
20180222060449 31 135 0.0 1.0 0.00 0.00 0.00 94 1017.7
20180222055949 31 135 0.0 1.0 0.00 0.00 0.00 94 1017.7
20180222055448 31 151 1.0 3.0 0.00 0.00 0.00 94 1017.7
20180222054948 31 151 1.0 3.0 0.00 0.00 0.00 94 1017.7
20180222054449 31 0 0.0 0.0 0.00 0.00 0.00 94 1017.7
20180222053949 32 225 0.0 2.0 0.00 0.00 0.00 94 1017.7
20180222053448 32 225 1.0 2.0 0.00 0.00 0.00 94 1017.7
20180222052949 32 300 1.0 2.0 0.00 0.00 0.00 94 1017.7
20180222052449 32 353 2.0 2.0 0.00 0.00 0.00 94 1017.7
20180222051949 32 1 1.0 2.0 0.00 0.00 0.00 94 1017.7
20180222051449 32 1 1.0 2.0 0.00 0.00 0.00 94 1017.7
20180222050948 32 1 1.0 2.0 0.00 0.00 0.00 94 1017.7
20180222050448 33 1 1.0 3.0 0.00 0.00 0.00 94 1017.7
20180222045949 32 1 2.0 3.0 0.00 0.00 0.00 94 1017.7
20180222045449 33 1 1.0 2.0 0.00 0.00 0.00 94 1017.7
20180222044949 33 0 0.0 0.0 0.00 0.00 0.00 94 1017.7
20180222044449 33 0 0.0 0.0 0.00 0.00 0.00 94 1017.7
20180222043949 33 0 0.0 0.0 0.00 0.00 0.00 94 1017.7
20180222043449 33 0 0.0 0.0 0.00 0.00 0.00 94 1017.7
20180222042949 33 0 0.0 0.0 0.00 0.00 0.00 94 1017.7
20180222042449 33 0 0.0 0.0 0.00 0.00 0.00 94 1017.7
20180222041948 33 0 0.0 0.0 0.00 0.00 0.00 94 1017.7
20180222041449 34 0 0.0 0.0 0.00 0.00 0.00 94 1017.7
20180222040949 34 0 0.0 0.0 0.00 0.00 0.00 94 1017.7
20180222040448 34 1 0.0 1.0 0.00 0.00 0.00 93 1017.7
20180222035949 34 1 1.0 2.0 0.00 0.00 0.00 93 1017.7
20180222035448 34 1 2.0 2.0 0.00 0.00 0.00 93 1017.7
20180222034949 34 1 1.0 2.0 0.00 0.00 0.00 93 1017.7
20180222034448 34 1 1.0 2.0 0.00 0.00 0.00 93 1017.7
20180222033948 35 1 1.0 2.0 0.00 0.00 0.00 92 1017.7
20180222033449 35 1 2.0 3.0 0.00 0.00 0.00 92 1017.7
20180222032949 35 1 2.0 3.0 0.00 0.00 0.00 92 1017.7
20180222032449 35 1 1.0 3.0 0.00 0.00 0.00 91 1017.7
20180222031949 35 1 1.0 2.0 0.00 0.00 0.00 91 1018.7
20180222031449 35 1 1.0 3.0 0.00 0.00 0.00 91 1018.7
20180222030949 36 1 2.0 3.0 0.00 0.00 0.00 91 1018.7
20180222030449 36 1 1.0 3.0 0.00 0.00 0.00 90 1018.7
20180222025949 36 1 2.0 3.0 0.00 0.00 0.00 90 1018.7
20180222025449 36 1 3.0 4.0 0.00 0.00 0.00 90 1018.7
20180222024949 36 1 3.0 4.0 0.00 0.00 0.00 91 1018.7
20180222024448 36 1 2.0 4.0 0.00 0.00 0.00 91 1018.7
20180222023949 36 1 1.0 2.0 0.00 0.00 0.00 91 1018.7
20180222023449 36 1 2.0 4.0 0.00 0.00 0.00 90 1018.7
20180222022949 36 358 2.0 4.0 0.00 0.00 0.00 90 1018.7
20180222022449 36 348 2.0 3.0 0.00 0.00 0.00 90 1018.7
20180222021949 36 348 3.0 3.0 0.00 0.00 0.00 90 1018.7
20180222021450 36 357 3.0 3.0 0.00 0.00 0.00 91 1018.7
20180222020949 36 356 3.0 4.0 0.00 0.00 0.00 90 1018.7
20180222020449 36 353 3.0 4.0 0.00 0.00 0.00 90 1018.7
20180222015949 36 357 3.0 3.0 0.00 0.00 0.00 90 1018.7
20180222015449 36 358 2.0 3.0 0.00 0.00 0.00 90 1018.7
20180222014949 36 1 2.0 3.0 0.00 0.00 0.00 90 1018.7
20180222014449 36 1 1.0 3.0 0.00 0.00 0.00 90 1018.7
20180222013949 36 1 1.0 3.0 0.00 0.00 0.00 90 1018.7
20180222013450 37 1 2.0 3.0 0.00 0.00 0.00 89 1019.7
20180222012949 37 1 3.0 3.0 0.00 0.00 0.00 89 1019.7
20180222012450 37 1 3.0 4.0 0.00 0.00 0.00 89 1019.7
20180222011950 37 1 3.0 4.0 0.00 0.00 0.00 89 1019.7
20180222011449 37 1 3.0 4.0 0.00 0.00 0.00 89 1019.7
20180222010950 37 1 3.0 4.0 0.00 0.00 0.00 89 1019.7
20180222010449 38 1 3.0 4.0 0.00 0.00 0.00 89 1019.7
20180222005950 38 1 3.0 4.0 0.00 0.00 0.00 89 1019.7
20180222005449 38 1 3.0 4.0 0.00 0.00 0.00 89 1019.7
20180222004950 38 1 3.0 4.0 0.00 0.00 0.00 89 1019.7
20180222004450 38 1 2.0 3.0 0.00 0.00 0.00 89 1019.7
20180222003950 38 1 2.0 2.0 0.00 0.00 0.00 89 1019.7
20180222003450 38 1 2.0 3.0 0.00 0.00 0.00 89 1019.7
20180222002950 38 1 2.0 3.0 0.00 0.00 0.00 88 1019.7
20180222002450 38 1 2.0 3.0 0.00 0.00 0.00 88 1019.7
20180222001950 38 1 2.0 3.0 0.00 0.00 0.00 88 1019.7
20180222001450 38 358 2.0 3.0 0.00 0.00 0.00 88 1019.7
20180222000950 38 350 2.0 3.0 0.00 0.00 0.00 88 1019.7
20180222000450 38 347 2.0 4.0 0.00 0.00 0.00 88 1019.7
20180221235950 39 343 2.0 4.0 0.00 0.00 0.00 88 1019.7
20180221235450 39 288 2.0 3.0 0.00 0.00 0.00 88 1019.7
20180221234950 39 248 2.0 3.0 0.00 0.00 0.00 89 1019.7
20180221234450 39 248 2.0 4.0 0.00 0.00 0.00 89 1019.7
20180221233950 39 238 2.0 4.0 0.00 0.00 0.00 89 1019.7
20180221233449 39 251 2.0 4.0 0.00 0.00 0.00 89 1019.7
20180221232950 39 348 2.0 3.0 0.00 0.00 0.00 89 1019.7
20180221232449 39 1 1.0 2.0 0.00 0.00 0.00 88 1019.7
20180221231949 39 1 1.0 3.0 0.00 0.00 0.00 88 1019.7
20180221231449 39 1 2.0 3.0 0.00 0.00 0.00 88 1019.7
20180221230950 39 1 3.0 3.0 0.00 0.00 0.00 88 1019.7
20180221230450 39 1 3.0 3.0 0.00 0.00 0.00 87 1019.7
20180221225950 39 1 2.0 3.0 0.00 0.00 0.00 88 1019.7
20180221225450 39 1 3.0 4.0 0.00 0.00 0.00 87 1019.7
20180221224950 39 1 2.0 4.0 0.00 0.00 0.00 87 1019.7
20180221224450 39 1 2.0 3.0 0.00 0.00 0.00 87 1019.7
20180221223950 39 1 2.0 3.0 0.00 0.00 0.00 87 1019.7
20180221223450 39 1 2.0 3.0 0.00 0.00 0.00 87 1019.7
20180221222950 39 1 2.0 3.0 0.00 0.00 0.00 87 1019.7
20180221222449 39 1 3.0 3.0 0.00 0.00 0.00 87 1019.7
20180221221949 39 1 2.0 3.0 0.00 0.00 0.00 87 1019.7
20180221221449 39 1 2.0 2.0 0.00 0.00 0.00 86 1019.7
20180221220950 39 1 2.0 3.0 0.00 0.00 0.00 86 1019.7
20180221220450 39 1 2.0 3.0 0.00 0.00 0.00 86 1019.7
20180221215950 39 1 2.0 3.0 0.00 0.00 0.00 86 1019.7
20180221215451 39 1 2.0 3.0 0.00 0.00 0.00 86 1019.7
20180221214950 39 1 2.0 3.0 0.00 0.00 0.00 86 1019.7
20180221214450 39 1 1.0 2.0 0.00 0.00 0.00 86 1019.7
20180221213950 39 1 2.0 2.0 0.00 0.00 0.00 86 1019.7
20180221213449 40 1 2.0 3.0 0.00 0.00 0.00 86 1019.7
20180221212950 40 1 2.0 3.0 0.00 0.00 0.00 86 1019.7
20180221212450 40 1 3.0 5.0 0.00 0.00 0.00 86 1019.7
20180221211949 40 1 3.0 5.0 0.00 0.00 0.00 86 1019.7
20180221211452 40 1 2.0 3.0 0.00 0.00 0.00 86 1019.7
20180221210949 40 1 1.0 3.0 0.00 0.00 0.00 86 1019.7
20180221210451 40 1 1.0 3.0 0.00 0.00 0.00 86 1019.7
20180221205951 40 1 1.0 2.0 0.00 0.00 0.00 85 1019.7
20180221205450 40 1 2.0 3.0 0.00 0.00 0.00 85 1019.7
20180221204950 40 1 3.0 3.0 0.00 0.00 0.00 85 1019.7
20180221204449 40 39 2.0 3.0 0.00 0.00 0.00 86 1019.7
20180221203950 40 74 2.0 4.0 0.00 0.00 0.00 86 1019.7
20180221203450 40 80 3.0 4.0 0.00 0.00 0.00 85 1019.7
20180221202950 40 90 3.0 4.0 0.00 0.00 0.00 85 1019.7
20180221202450 40 90 2.0 4.0 0.00 0.00 0.00 86 1019.7
20180221201949 40 90 3.0 4.0 0.00 0.00 0.00 85 1019.7
20180221201450 40 90 3.0 4.0 0.00 0.00 0.00 85 1019.7
20180221200950 40 86 4.0 5.0 0.00 0.00 0.00 86 1019.7
20180221200450 40 60 4.0 5.0 0.00 0.00 0.00 85 1019.7
20180221195950 40 17 3.0 4.0 0.00 0.00 0.00 85 1019.7
20180221195451 40 1 2.0 3.0 0.00 0.00 0.00 85 1019.7
20180221194950 40 1 2.0 3.0 0.00 0.00 0.00 85 1019.7
20180221194451 40 1 1.0 2.0 0.00 0.00 0.00 85 1019.7
20180221193950 40 1 1.0 2.0 0.00 0.00 0.00 85 1019.7
20180221193450 40 1 2.0 2.0 0.00 0.00 0.00 85 1020.7
20180221192950 40 1 1.0 2.0 0.00 0.00 0.00 85 1020.7
20180221192451 40 1 2.0 3.0 0.00 0.00 0.00 84 1020.7
20180221191950 40 1 3.0 3.0 0.00 0.00 0.00 83 1019.7
20180221191450 41 1 3.0 3.0 0.00 0.00 0.00 83 1019.7
20180221190950 41 1 2.0 3.0 0.00 0.00 0.00 82 1019.7
20180221190450 41 33 3.0 4.0 0.00 0.00 0.00 82 1019.7
20180221185950 41 78 3.0 4.0 0.00 0.00 0.00 81 1019.7
20180221185450 41 92 3.0 4.0 0.00 0.00 0.00 81 1019.7
20180221184950 41 92 3.0 4.0 0.00 0.00 0.00 81 1020.7
20180221184450 42 82 3.0 4.0 0.00 0.00 0.00 81 1020.7
20180221183950 42 84 3.0 5.0 0.00 0.00 0.00 81 1020.7
20180221183450 42 90 4.0 6.0 0.00 0.00 0.00 81 1019.7
20180221182950 42 91 4.0 6.0 0.00 0.00 0.00 80 1019.7
20180221182450 42 95 4.0 6.0 0.00 0.00 0.00 80 1019.7
20180221181951 42 97 4.0 6.0 0.00 0.00 0.00 79 1019.7
20180221181451 42 92 4.0 6.0 0.00 0.00 0.00 79 1019.7
20180221180951 42 92 4.0 6.0 0.00 0.00 0.00 79 1019.7
20180221180451 42 96 5.0 8.0 0.00 0.00 0.00 79 1019.7
20180221175951 42 95 4.0 8.0 0.00 0.00 0.00 78 1019.7
20180221175451 42 90 3.0 6.0 0.00 0.00 0.00 78 1019.7
20180221174951 42 91 4.0 6.0 0.00 0.00 0.00 77 1019.7
20180221174450 42 91 4.0 6.0 0.00 0.00 0.00 77 1019.7
20180221173951 42 90 3.0 4.0 0.00 0.00 0.00 76 1019.7
20180221173450 43 90 3.0 5.0 0.00 0.00 0.00 76 1019.7
20180221172950 43 90 4.0 6.0 0.00 0.00 0.00 76 1019.7
20180221172450 43 91 4.0 6.0 0.00 0.00 0.00 76 1019.7
20180221171951 43 91 4.0 6.0 0.00 0.00 0.00 76 1019.7
20180221171451 44 90 4.0 6.0 0.00 0.00 0.00 76 1019.7
20180221170951 44 90 4.0 5.0 0.00 0.00 0.00 76 1019.7
20180221170451 44 92 4.0 5.0 0.00 0.00 0.00 76 1019.7
20180221165951 44 103 4.0 4.0 0.00 0.00 0.00 76 1019.7
20180221165451 44 111 3.0 4.0 0.00 0.00 0.00 75 1019.7
20180221164951 44 110 3.0 4.0 0.00 0.00 0.00 74 1019.7
20180221164450 44 108 3.0 3.0 0.00 0.00 0.00 74 1019.7
20180221163951 44 115 3.0 3.0 0.00 0.00 0.00 73 1019.7
20180221163450 44 169 2.0 3.0 0.00 0.00 0.00 74 1019.7
20180221162950 44 225 2.0 3.0 0.00 0.00 0.00 73 1019.7
20180221162451 44 200 2.0 3.0 0.00 0.00 0.00 73 1019.7
20180221161951 44 204 2.0 3.0 0.00 0.00 0.00 72 1019.7
20180221161451 45 229 2.0 3.0 0.00 0.00 0.00 72 1019.7
20180221160951 45 229 2.0 3.0 0.00 0.00 0.00 71 1019.7
20180221160451 45 228 2.0 3.0 0.00 0.00 0.00 71 1019.7
20180221155950 45 235 3.0 4.0 0.00 0.00 0.00 71 1019.7
20180221155451 45 237 3.0 5.0 0.00 0.00 0.00 69 1019.7
20180221154951 45 230 3.0 5.0 0.00 0.00 0.00 72 1019.7
20180221154450 45 244 2.0 3.0 0.00 0.00 0.00 71 1019.7
20180221153950 45 247 2.0 3.0 0.00 0.00 0.00 71 1019.7
20180221153451 45 244 3.0 5.0 0.00 0.00 0.00 70 1019.7
20180221152951 45 246 3.0 5.0 0.00 0.00 0.00 70 1019.7
20180221152451 45 237 4.0 5.0 0.00 0.00 0.00 70 1019.7
20180221151951 46 231 4.0 5.0 0.00 0.00 0.00 70 1020.7
20180221151451 46 229 4.0 5.0 0.00 0.00 0.00 71 1020.7
20180221150951 46 216 4.0 5.0 0.00 0.00 0.00 71 1019.7
20180221150451 46 202 4.0 5.0 0.00 0.00 0.00 71 1019.7
20180221145951 46 218 4.0 5.0 0.00 0.00 0.00 71 1019.7
20180221145451 46 222 4.0 5.0 0.00 0.00 0.00 70 1019.7
20180221144951 46 215 4.0 5.0 0.00 0.00 0.00 72 1020.7
20180221144451 46 200 4.0 5.0 0.00 0.00 0.00 73 1020.7
20180221143952 46 195 2.0 5.0 0.00 0.00 0.00 74 1020.7
20180221143451 45 175 2.0 3.0 0.00 0.00 0.00 75 1020.7
20180221142951 45 154 2.0 3.0 0.00 0.00 0.00 75 1020.7
20180221142451 45 151 2.0 3.0 0.00 0.00 0.00 75 1020.7
20180221141951 45 190 2.0 4.0 0.00 0.00 0.00 76 1020.7
20180221141451 45 224 2.0 4.0 0.00 0.00 0.00 75 1020.7
20180221140951 45 228 3.0 4.0 0.00 0.00 0.00 75 1020.7
20180221140451 45 235 3.0 4.0 0.00 0.00 0.00 74 1020.7
20180221135951 45 217 2.0 3.0 0.00 0.00 0.00 74 1020.7
20180221135452 45 158 2.0 3.0 0.00 0.00 0.00 75 1020.7
20180221134951 46 128 2.0 4.0 0.00 0.00 0.00 75 1020.7
20180221134451 46 128 3.0 4.0 0.00 0.00 0.00 74 1020.7
20180221133951 46 145 3.0 4.0 0.00 0.00 0.00 75 1020.7
20180221133451 46 131 2.0 4.0 0.00 0.00 0.00 76 1021.7
20180221132952 45 88 2.0 3.0 0.00 0.00 0.00 76 1021.7
20180221132452 45 88 2.0 3.0 0.00 0.00 0.00 75 1021.7
20180221131952 44 94 2.0 4.0 0.00 0.00 0.00 74 1021.7
20180221131451 45 98 3.0 6.0 0.00 0.00 0.00 75 1021.7
20180221130951 45 109 2.0 6.0 0.00 0.00 0.00 76 1021.7
20180221130451 44 109 2.0 4.0 0.00 0.00 0.00 76 1021.7
20180221125951 45 95 3.0 4.0 0.00 0.00 0.00 76 1021.7
20180221125451 45 102 4.0 5.0 0.00 0.00 0.00 76 1021.7
20180221124951 44 95 3.0 5.0 0.00 0.00 0.00 76 1021.7
20180221124451 44 81 3.0 6.0 0.00 0.00 0.00 75 1021.7
20180221123951 44 90 3.0 6.0 0.00 0.00 0.00 75 1021.7
20180221123451 44 75 3.0 6.0 0.00 0.00 0.00 76 1021.7
20180221122951 43 57 4.0 6.0 0.00 0.00 0.00 76 1021.7
20180221122451 43 42 4.0 6.0 0.00 0.00 0.00 75 1021.7
20180221121951 43 11 2.0 4.0 0.00 0.00 0.00 75 1021.7
20180221121451 43 78 2.0 4.0 0.00 0.00 0.00 76 1021.7
20180221120951 43 60 2.0 6.0 0.00 0.00 0.00 77 1021.7
20180221120452 42 23 3.0 6.0 0.00 0.00 0.00 77 1022.7
20180221115951 42 26 2.0 4.0 0.00 0.00 0.00 76 1022.7
20180221115451 42 83 2.0 4.0 0.00 0.00 0.00 77 1022.7
20180221114951 42 45 2.0 4.0 0.00 0.00 0.00 77 1022.7
20180221114451 42 356 3.0 4.0 0.00 0.00 0.00 78 1022.7
20180221113951 42 344 2.0 4.0 0.00 0.00 0.00 78 1022.7
20180221113451 42 339 2.0 3.0 0.00 0.00 0.00 78 1022.7
20180221112951 41 351 2.0 2.0 0.00 0.00 0.00 79 1022.7
20180221111951 41 1 2.0 3.0 0.00 0.00 0.00 79 1022.7
20180221111451 41 1 2.0 3.0 0.00 0.00 0.00 81 1022.7
20180221110951 40 352 2.0 3.0 0.00 0.00 0.00 81 1022.7
20180221110451 40 342 1.0 2.0 0.00 0.00 0.00 81 1022.7
20180221105952 40 337 2.0 3.0 0.00 0.00 0.00 82 1022.7
20180221105451 39 320 2.0 3.0 0.00 0.00 0.00 82 1022.7
20180221104951 39 299 2.0 3.0 0.00 0.00 0.00 82 1022.7
20180221104451 39 297 2.0 3.0 0.00 0.00 0.00 84 1022.7
20180221103951 38 328 2.0 3.0 0.00 0.00 0.00 85 1022.7
20180221103452 38 1 2.0 3.0 0.00 0.00 0.00 86 1022.7
20180221102952 38 1 2.0 2.0 0.00 0.00 0.00 86 1022.7
20180221102451 38 1 1.0 3.0 0.00 0.00 0.00 87 1022.7
20180221101951 37 1 1.0 3.0 0.00 0.00 0.00 87 1022.7
20180221101451 37 1 1.0 1.0 0.00 0.00 0.00 87 1022.7
20180221100952 37 1 1.0 2.0 0.00 0.00 0.00 88 1022.7
20180221100452 38 1 1.0 2.0 0.00 0.00 0.00 88 1022.7
20180221095952 38 1 2.0 3.0 0.00 0.00 0.00 88 1022.7
20180221095452 38 1 2.0 3.0 0.00 0.00 0.00 88 1022.7
20180221094952 38 1 1.0 2.0 0.00 0.00 0.00 88 1022.7
20180221094452 38 1 1.0 2.0 0.00 0.00 0.00 88 1022.7
20180221093952 38 1 1.0 2.0 0.00 0.00 0.00 88 1022.7
20180221093452 38 1 1.0 2.0 0.00 0.00 0.00 88 1022.7
20180221092952 38 1 0.0 1.0 0.00 0.00 0.00 88 1022.7
20180221092452 37 78 0.0 1.0 0.00 0.00 0.00 88 1022.7
20180221091952 37 90 1.0 2.0 0.00 0.00 0.00 88 1022.7
20180221091452 37 90 1.0 2.0 0.00 0.00 0.00 89 1022.7
20180221090952 37 90 1.0 2.0 0.00 0.00 0.00 89 1022.7